Hourly Data Report for October 02, 2017

All times are specified in Local Standard Time (LST). Add 1 hour to adjust for Daylight Saving Time where and when it is observed.

SHEARWATER RCS
NOVA SCOTIA

44°37'47.000" N
63°30'48.000" W
24.00 m
8205092
71264
AAW

Download Data

Hourly Data (October 2017)
Hourly Data Report for October 2, 2017
Temp Definition
°C
Dew Point Temp Definition
°C
Rel Hum Definition
%
Wind Dir Definition
10's deg

Wind Spd Definition
km/h
Visibility Definition
km
Stn Press Definition
kPa
Hmdx Definition


Wind Chill Definition


Weather Definition


TIME
00:00 9.3 4.3 71 30 7   101.64     LegendNANA
01:00 8.2 4.7 79 32 5   101.67     LegendNANA
02:00 7.2 4.9 85 33 4   101.68     LegendNANA
03:00 9.1 6.7 85 33 7   101.64     LegendNANA
04:00 9.1 7.1 88 32 10   101.69     LegendNANA
05:00 9.1 7.2 88 32 12   101.76     LegendNANA
06:00 8.7 6.6 87 32 8   101.85     LegendNANA
07:00 9.8 7.1 83 31 10   101.92     LegendNANA
08:00 12.2 8.2 77 35 15   101.97     LegendNANA
09:00 13.6 6.4 62 36 21   102.03     LegendNANA
10:00 14.4 6.2 58 35 22   102.10     LegendNANA
11:00 14.4 4.4 51 36 19   102.13     LegendNANA
12:00 15.2 4.2 48 36 23   102.16     LegendNANA
13:00 13.7 1.9 45 34 26   102.22     LegendNANA
14:00 12.6 0.9 45 35 30   102.27     LegendNANA
15:00 12.2 1.6 48 36 30   102.36     LegendNANA
16:00 12.6 2.1 49 36 22   102.42     LegendNANA
17:00 11.2 2.5 55 1 19   102.53     LegendNANA
18:00 9.8 1.4 56 35 22   102.67     LegendNANA
19:00 9.2 1.8 60 36 17   102.78     LegendNANA
20:00 8.7 1.9 63 34 18   102.88     LegendNANA
21:00 8.2 1.8 64 34 18   102.95     LegendNANA
22:00 7.8 2.3 68 34 16   102.98     LegendNANA
23:00 7.1 2.6 73 33 14   103.00     LegendNANA

Notes on Data Quality.

Legend

  • E = Estimated
  • M = Missing
  • NA = Not Available
  • ‡ = Partner data that is not subject to review by the National Climate Archives
Date modified: